sat.trackr.live / text

‹ back to catalog

STARLINK-30961

NORAD 58445 · 2023-183J

PAYLOAD ACTIVE UNKNOWN

§ Identity

Operator
Country
US
Launch date
2023-11-28
Launch site
AFETR
Launch vehicle
Mass (kg)
RCS (m²)

Purposes: comms

External: N2YO · Heavens-Above · Gunter

§ Orbital elements

Epoch: 2026-05-24T21:52:44.431968Z

Period
94.27 min
Inclination
43.0044°
Eccentricity
0.0001537
Mean motion
15.27583944 rev/d
Perigee alt
482.0 km
Apogee alt
484.1 km
Semi-major
6,861.2 km
B*
7.0711e-5
RAAN
330.9699°
Arg perigee
269.0958°
Mean anomaly
90.9718°
Rev number
13,839

§ Raw data

STARLINK-309611 58445U 23183J   26144.91162537  .00001684  00000+0  70711-4 0  99922 58445  43.0044 330.9699 0001537 269.0958  90.9718 15.27583944138393

JSON: /api/v1/satellites/58445 · /tle

For live sub-satellite position, see the globe view (requires WebGL).

§ Visibility from observer

Set your observer location to see the next 7 days of passes ≥ 10°. The values pass through the URL so the page stays shareable.

No JS? Fill the form by hand. The geolocation button needs JavaScript.